DELTA 1 DEB, 21317

Orbit data source: Space-Track

DELTA 1 DEB, 21317 is space debris in SSO originally from a launch on Thu, 12 Jun 1975 UTC launched from the Air Force Western Test Range (AFWTR). Debris objects in space refer to the collection of defunct objects orbiting the Earth. Examples of debris include non-operational satellites, rocket bodies, and fragments generated from explosions, collisions, or faulty payload assembly.

Loading next visibility...
Identifier
21317, 1975-052AK
Orbit
SSO
Country
Flag of USUS
Related business
Manufacturer
Unknown
Mission
Spacecraft
Bus & Motor
Unknown
Mass
Unknown
Launch date (UTC)
1975-06-12 (50 years ago)
Launch vehicle
Unknown
Launch site
Air Force Western Test Range (AFWTR)
Object type
Payload
Rocket body
Debris
Shape & HBR
Unknown shape, 0.1 m
Radar Cross Section
Small (<0.1 m²)

Expand to show TLE details & history
Last TLE update: 9 hours ago

TLE from 9 hours ago
0 DELTA 1 DEB
1 21317U 75052AK  25290.76580900  .00001682  00000-0  29088-2 0  9992
2 21317 100.0973 225.3614 0209629 185.7468 204.6708 13.37397431648046
Epoch: 2025-10-17T18:22Z
TLE epoch observation values (Epoch: 2025-10-17T18:22:45.897Z)
Latitude
28.98353°
Longitude
-82.46898°
Altitude
1,265.846 km
Speed
7.156 km/s
True Right ascension
14h 38m 54s
True Declination
28° 50' 52"
Sunlit
Object was in daylight at epoch
Visualization orbit readout
Latitude
Unknown
Longitude
Unknown
Altitude
Unknown
Speed
Unknown
Apparent Right ascension
Unknown
Apparent Declination
Unknown
Sunlit
N/A
Visualization observer readout
Local Sidereal Time
22:07:16
Azimuth
Unknown
Elevation
Unknown
Doppler factor
Unknown
Orbital elements
Apogee altitude
1,273.433 km
Perigee altitude
959.221 km
Semi-major axis
7,494.464 km
Eccentricity
0.02096
Inclination
100.0973°
RAAN
225.3614°
Arg. of periapsis
185.7468°
True anomaly
203.69151°
Mean anomaly
204.6708°
Eccentric anomaly
204.17885°
Mean motion
3.34528 °/min
Orbital period
107.61 mins
BSTAR
0.0029088
Loading maneuver chart data...
Computing Atmospheric mass density...

Documentation

Showing up to 5 results
|